Location: Cahas Mountain Overlook
(37.0833°N, 80.1000°W)
Time: 11:41:14
(UTC-05:00)

Courier 1B - Pass Details

Date: 14 December 2023
Orbit: 962 x 1209 km, 28.3° (Epoch: 29 February)

Event Time Altitude Azimuth Distance (km) Brightness Sun altitude
Rises 10:50:41 0° 264° (W) 3,863 10.5 26.5°
Reaches altitude 10° 10:54:16 10° 248° (WSW) 2,857 10.0 26.8°
Maximum altitude 10:59:03 20° 204° (SSW) 2,159 10.2 27.1°
Drops below altitude 10° 11:03:39 10° 160° (SSE) 2,742 11.7 27.4°
Sets 11:07:01 0° 143° (SE) 3,660 11.6 27.6°
